This is the latest recevied weather packets stored in our database for station/object HB9FHL-13. If no packets are shown the sender has not sent any weather packets the latest 10 day(s).
| Time | Temp. | Humidity | Pressure | Rain* | Wind** | Luminosity | Snow |
|---|---|---|---|---|---|---|---|
| 1778133131 | 9.44° C | - | 1012.2 hPa | 0 mm | - | - | - |
| 1778132831 | 9.44° C | - | 1015 hPa | 0 mm | - | - | - |
| 1778132530 | 8.89° C | - | 1011.4 hPa | 0 mm | - | - | - |
| 1778132229 | 10° C | - | 1011.8 hPa | 0 mm | - | - | - |
| 1778131929 | 8.33° C | - | 1015.3 hPa | 0 mm | - | - | - |
| 1778131629 | 9.44° C | - | 1013.9 hPa | 0 mm | - | - | - |
| 1778131328 | 8.89° C | - | 1012.2 hPa | 0 mm | - | - | - |
| 1778131028 | 9.44° C | - | 1013.2 hPa | 0 mm | - | - | - |
| 1778130727 | 9.44° C | - | 1015.4 hPa | 0 mm | - | - | - |
| 1778130427 | 9.44° C | - | 1010.8 hPa | 0 mm | - | - | - |
| 1778130126 | 9.44° C | - | 1011.3 hPa | 0 mm | - | - | - |
| 1778129826 | 8.89° C | - | 1015.6 hPa | 0 mm | - | - | - |
| 1778129525 | 9.44° C | - | 1014.2 hPa | 0 mm | - | - | - |
| 1778129225 | 10° C | - | 1012.2 hPa | 0 mm | - | - | - |
| 1778128924 | 8.89° C | - | 1011.9 hPa | 0 mm | - | - | - |
| 1778128624 | 8.89° C | - | 1010.1 hPa | 0 mm | - | - | - |
| 1778128365 | 8.89° C | - | 1013.2 hPa | 0 mm | - | - | - |
| 1778128323 | 8.89° C | - | 1013.2 hPa | 0 mm | - | - | - |
| 1778128023 | 9.44° C | - | 1013.3 hPa | 0 mm | - | - | - |
| 1778127722 | 8.89° C | - | 1010.7 hPa | 0 mm | - | - | - |
| 1778127422 | 8.89° C | - | 1011.4 hPa | 0 mm | - | - | - |
| 1778127121 | 10° C | - | 1013.2 hPa | 0 mm | - | - | - |
| 1778126817 | 8.89° C | - | 1012.3 hPa | 0 mm | - | - | - |
| 1778126516 | 8.89° C | - | 1014.8 hPa | 0 mm | - | - | - |
| 1778126216 | 9.44° C | - | 1013.3 hPa | 0 mm | - | - | - |
* Rain since midnight (hover to see other rain measurements)
** Current wind speed in m/s (hover to see current wind gust speed)